Weather History for Cincinnati, OH

Change the Weather History Date:

Monday, February 10, 2014

  Actual Average Record
Temperature  
Mean Temperature 16 °F -  
Max Temperature 21 °F 40 °F 68 °F (1959)
Min Temperature 10 °F 21 °F -1 °F (1982)
Degree Days  
Heating Degree Days 50    
Moisture  
Dew Point 5 °F    
Average Humidity 64    
Maximum Humidity 73    
Minimum Humidity 48    
Precipitation  
Precipitation 0.00 in - - ()
Sea Level Pressure  
Sea Level Pressure 30.38 in    
Wind  
Wind Speed 7 mph (North)    
Max Wind Speed 12 mph    
Max Gust Speed -    
Visibility 9 miles    
Events      
Averages and records for this station are not official NWS values.
T = Trace of Precipitation, MM = Missing Value Source: NWS Daily Summary

Daily Weather History Graph

Daily Weather History Graph

Search for Another Location

Airport:

Trip Planner

Search our weather history database for the weather conditions in past years. The results will help you decide how hot, cold, wet, or windy it might be!

Date:

Astronomy

Feb. 10, 2014 Rise Set
Actual Time 7:35 AM EST 6:09 PM EST
Civil Twilight 7:07 AM EST 6:36 PM EST
Nautical Twilight 6:35 AM EST 7:08 PM EST
Astronomical Twilight 6:04 AM EST 7:39 PM EST
Moon 2:38 PM EST (2/10) 4:26 AM EST (2/10)
Length of Visible Light 11h 29m
Length of Day
10h 34m
Waxing Gibbous, 84% of the Moon is Illuminated
Feb 10
Waxing Gibbous
Feb 14
Full
Feb 22
Last Quarter
Mar 1
New
Mar 8
First Quarter

Hourly Weather History & Observations

Time (EST) Temp. Windchill Dew Point Humidity Pressure Visibility Wind Dir Wind Speed Gust Speed Precip Events Conditions
12:53 AM 19.0 °F 7.5 °F 10.0 °F 68% 30.29 in 10.0 mi NNW 10.4 mph - N/A   Clear
1:53 AM 18.0 °F 5.4 °F 9.0 °F 68% 30.30 in 10.0 mi NNW 11.5 mph - N/A   Overcast
2:53 AM 16.0 °F 5.3 °F 7.0 °F 68% 30.31 in 10.0 mi North 8.1 mph - N/A   Clear
3:53 AM 14.0 °F 5.1 °F 6.1 °F 71% 30.32 in 10.0 mi North 5.8 mph - N/A   Clear
4:53 AM 14.0 °F 3.9 °F 6.1 °F 71% 30.34 in 10.0 mi NNW 6.9 mph - N/A   Clear
5:53 AM 12.0 °F 5.9 °F 5.0 °F 73% 30.34 in 9.0 mi NNW 3.5 mph - N/A   Clear
6:53 AM 10.9 °F 1.4 °F 3.9 °F 73% 30.36 in 10.0 mi NW 5.8 mph - N/A   Clear
7:53 AM 10.9 °F 2.9 °F 3.9 °F 73% 30.38 in 10.0 mi NW 4.6 mph - N/A   Clear
8:53 AM 12.0 °F - 5.0 °F 73% 30.39 in 10.0 mi Calm Calm - N/A   Clear
9:53 AM 12.9 °F 3.8 °F 5.0 °F 71% 30.41 in 7.0 mi NNW 5.8 mph - N/A   Clear
10:53 AM 15.1 °F 7.7 °F 6.1 °F 68% 30.40 in 6.0 mi North 4.6 mph - N/A   Haze
11:53 AM 18.0 °F 12.7 °F 6.1 °F 60% 30.41 in 7.0 mi Variable 3.5 mph - N/A   Clear
12:53 PM 19.0 °F 9.0 °F 6.1 °F 57% 30.40 in 9.0 mi North 8.1 mph - N/A   Clear
1:53 PM 21.0 °F 16.2 °F 6.1 °F 53% 30.38 in 10.0 mi NNE 3.5 mph - N/A   Clear
2:53 PM 21.9 °F 17.2 °F 6.1 °F 51% 30.37 in 9.0 mi ENE 3.5 mph - 0.00 in   Clear
3:53 PM 21.9 °F - 6.1 °F 51% 30.37 in 10.0 mi Calm Calm - N/A   Clear
4:53 PM 21.9 °F 13.4 °F 5.0 °F 48% 30.38 in 10.0 mi NNE 6.9 mph - N/A   Clear
5:53 PM 19.9 °F 11.1 °F 5.0 °F 52% 30.39 in 10.0 mi North 6.9 mph - N/A   Clear
6:53 PM 18.0 °F 11.1 °F 5.0 °F 57% 30.41 in 10.0 mi NNE 4.6 mph - N/A   Clear
7:53 PM 17.1 °F 6.6 °F 5.0 °F 59% 30.43 in 9.0 mi North 8.1 mph - N/A   Clear
8:53 PM 15.1 °F 5.2 °F 3.9 °F 61% 30.44 in 9.0 mi NNW 6.9 mph - N/A   Clear
9:53 PM 12.9 °F 0.7 °F 3.0 °F 65% 30.46 in 9.0 mi North 9.2 mph - N/A   Clear
10:53 PM 10.9 °F 2.9 °F 3.0 °F 70% 30.46 in 8.0 mi North 4.6 mph - N/A   Clear
11:53 PM 10.0 °F 3.6 °F 1.0 °F 67% 30.46 in 9.0 mi NNE 3.5 mph - N/A   Clear